Regional Weather Roundup
Issued by NWS Sterling, VA

Home | Current Version | Previous Version | Graphics & Text | Print | Product List | Glossary On
Versions: 1 2 3 4 5 6 7 8 9 10 11 12 13 14 15 16 17 18 19 20 21 22 23 24 25 26 27 28 29 30 31 32 33 34 35 36 37 38 39 40 41 42 43 44 45 46 47 48 49 50
000
ASUS41 KLWX 301110
RWRLWX

REGIONAL WEATHER ROUNDUP
NATIONAL WEATHER SERVICE BALTIMORE MD/WASHINGTON DC
700 AM EDT SAT JUL 30 2016

Note: "FAIR" indicates few or no clouds below 12,000 feet
with no significant weather and/or obstructions to visibility.
 TC=TEMPERATURE CELSIUS

 * =Non NWS site. Station does not report precipitation (e.g. rain,
    snow, etc.), thunder, or fog.

DCZ001-MDZ009-015-VAZ040>042-051-053>054-301200-
WASHINGTON METRO

CITY           SKY/WX    TMP DP  RH WIND       PRES   REMARKS
WASHINGTON NAT MOCLDY    79  74  84 S5        29.97R
DULLES         MOCLDY    75  71  87 S3        29.97R
ANDREWS AFB    CLOUDY    74  72  94 S1        29.97R
FT BELVOIR     FAIR      73  72  96 CALM      29.97R
LEESBURG*      FAIR      73  73 100 CALM      29.98R
MANASSAS*      CLEAR     73  73 100 S3        29.96R
GAITHERSBURG*  CLOUDY    73  70  88 SE5       30.01R

$$

MDZ006>007-011-014-301200-
BALTIMORE METRO

CITY           SKY/WX    TMP DP  RH WIND       PRES   REMARKS
BWI AIRPORT    CLOUDY    74  72  93 CALM      29.97R FOG
MD SCIENCE CTR   N/A     77  72  84 MISG      29.97R
MARTIN STATE   MOCLDY    75  75 100 CALM      29.97R FOG
ANNAPOLIS      CLOUDY     0   0 100 CALM      29.96R
FORT MEADE*    CLOUDY    70  68  94 CALM      29.99R

$$

MDZ012-015-019>023-301200-
MARYLAND EASTERN SHORE

CITY           SKY/WX    TMP DP  RH WIND       PRES   REMARKS
OCEAN CITY     CLEAR     74  72  93 CALM      29.98R
SALISBURY      NOT AVBL
BAY BRIDGE AP* CLOUDY    79  77  94 S3        29.96R
CAMBRIDGE*     CLEAR     72  72 100 CALM      29.97R
EASTON*        CLEAR     77  77 100 SE3       30.01R

$$

MDZ017>025-301200-
SOUTHERN MARYLAND

CITY           SKY/WX    TMP DP  RH WIND       PRES   REMARKS
PATUXENT RIVER NOT AVBL
ST INIGOES     CLOUDY    75  73  93 CALM      29.96R
LEONARDTOWN*   CLOUDY    72  70  94 CALM      29.98R

$$

MDZ003>005-301200-
NORTH CENTRAL MARYLAND

CITY           SKY/WX    TMP DP  RH WIND       PRES   REMARKS
FREDERICK*     CLEAR     72  72 100 CALM      29.99R FOG
HAGERSTOWN APT CLOUDY    74  69  85 E3        29.97R

$$

MDZ501>502-301200-
WESTERN MARYLAND

CITY           SKY/WX    TMP DP  RH WIND       PRES   REMARKS
OAKLAND*       CLOUDY    64  63  94 S5        30.06R
CUMBERLAND*    CLOUDY    70  70 100 E3        30.02R

$$

VAZ025>031-301200-
SHENANDOAH VALLEY

CITY           SKY/WX    TMP DP  RH WIND       PRES   REMARKS
WINCHESTER*    CLOUDY    72  72 100 CALM      29.97R
FRONT ROYAL*   CLOUDY    72  70  94 CALM      29.96R
LURAY*         NOT AVBL
NEW MARKET*    FAIR      69  68  96 CALM      29.98R
STAUNTON*      CLOUDY    70  69  97 CALM      30.02R
WAYNESBORO*    PTSUNNY   71  69  94 CALM      30.01R

$$

WVZ021-048>050-054>055-301200-
EASTERN WEST VIRGINIA PANHANDLE

CITY           SKY/WX    TMP DP  RH WIND       PRES   REMARKS
MARTINSBURG    CLOUDY    72  70  93 CALM      29.97R
PETERSBURG*    FAIR      71  70  98 CALM      29.98R FOG

$$

VAZ036>039-050-301200-
CENTRAL FOOTHILLS

CITY           SKY/WX    TMP DP  RH WIND       PRES   REMARKS
CHARLOTTESVILL MOCLDY    73  71  93 CALM      29.97R
CULPEPER*      MOCLDY    73  73 100 CALM      29.98R FOG
ORANGE*          N/A     73  73 100 CALM      29.99R
GORDONSVILLE*  PTSUNNY   73  73 100 MISG      29.97R
WARRENTON*     CLOUDY    74  69  85 CALM      29.97R

$$

VAZ055>057-301200-
NORTH AND CENTRAL PIEDMONT

CITY           SKY/WX    TMP DP  RH WIND       PRES   REMARKS
FREDERICKSBRG* MOCLDY    74  74 100 CALM      29.96R
STAFFORD*      FAIR      71  70  96 CALM      30.01R FOG

$$

NCZ024-NYZ072-PAZ021-071-VAZ022-071-301200-
OTHER REGIONAL OBSERVATIONS

CITY           SKY/WX    TMP DP  RH WIND       PRES   REMARKS
NEW YORK CITY  CLOUDY    75  69  81 CALM      30.00R
PHILADELPHIA   PTSUNNY   76  73  91 S3        29.98R
PITTSBURGH     CLOUDY    71  65  81 SE3       29.95R
ROANOKE        MOCLDY    70  69  97 NW5       30.03R
RICHMOND       FAIR      74  72  93 SE3       29.97R
RALEIGH        CLOUDY    78  72  81 SE6       29.96R

$$

ANZ530>537-301200-
MARINE OBSERVATIONS

STATION/POSITION TIME  TEMP    WIND        PRES
                       AIR SEA DIR/SP/G
                 (UTC) (F)     (DEG/KT/KT) (MB)
THOMAS PT LIGHT  1100   81 83  210/  8/  8 1016.1R
BALT KEY BRIDGE  1048   77     190/  4/  5 1014.3R
COVE POINT       1048   79     200/  5/  6 1015.1R
LEWISETTA        1048   79 85  230/  3/  4 1014.4R
SOLOMONS ISLAND  1036   79 85  180/  2/  3   N/A
PINEY POINT      1048          190/  7/  8   N/A

$$




USA.gov is the U.S. government's official web portal to all federal, state and local government web resources and services.